Theta_e
350 351 351 351 351 351 351 351 351 350 350 351 350 350 350 349 350 349 349 349 347 349 350 350 349 349 348 349 346 346 346 346 345 346 345 345 345 345 345 344 344 345 345 345 343 342 342 341 340 339 339 339 337 338 338 338 338 337 337 336 337 336
349 349 350 350 350 351 351 350 351 351 351 351 351 351 351 351 351 350 348 349 350 349 348 349 349 349 349 349 348 346 346 346 346 345 345 345 345 345 344 343 344 344 344 344 343 343 343 341 340 340 339 337 337 337 339 339 339 337 337 337 337 336
348 349 350 350 349 350 351 351 350 351 350 350 351 352 350 351 350 350 349 348 349 349 348 348 349 347 348 347 348 346 346 345 345 344 344 345 345 345 344 343 343 343 343 342 344 344 341 340 341 339 337 338 338 338 339 340 340 339 337 337 337 337
348 349 349 349 349 349 349 350 349 349 349 350 351 350 350 350 350 349 348 349 348 348 348 348 348 347 348 349 348 346 345 345 345 344 343 345 344 344 343 342 341 340 341 344 346 343 342 341 341 340 340 338 337 337 339 340 338 338 338 336 336 337
348 348 349 348 348 347 348 348 348 347 348 348 348 348 348 349 350 349 349 348 348 348 348 348 347 348 348 347 347 347 347 346 345 344 342 344 345 341 344 342 341 341 343 344 343 343 342 341 340 338 338 338 337 338 338 339 338 338 339 338 338 338
347 348 348 347 348 347 347 346 346 346 347 347 347 347 348 348 348 348 348 348 349 348 347 346 346 346 346 347 345 345 344 345 344 344 343 341 340 341 342 341 341 341 342 344 343 343 342 339 338 337 337 338 337 338 338 337 338 339 338 338 338 335
346 347 346 348 348 347 347 347 346 347 346 345 346 346 345 346 348 347 347 347 346 348 348 346 345 345 344 345 345 344 344 344 343 343 343 340 339 340 340 340 341 342 342 342 342 342 340 339 338 336 337 337 338 337 339 338 338 338 337 337 337 339
346 346 346 347 347 346 347 346 346 346 347 346 345 345 345 346 347 346 347 349 348 347 345 345 344 344 343 344 344 344 345 343 343 342 343 340 338 338 338 339 340 340 340 341 341 340 338 337 337 338 336 338 337 338 339 338 339 339 338 338 337 337
347 347 347 347 346 346 346 346 346 345 346 347 345 344 345 346 346 346 346 345 347 345 345 345 344 343 343 343 343 343 344 343 343 342 342 339 339 338 338 338 338 339 341 341 340 340 338 337 338 339 337 336 336 338 339 339 340 338 338 337 337 336
346 346 347 346 347 347 346 345 345 345 346 347 344 344 346 344 346 345 344 345 346 345 344 344 343 343 342 344 343 343 343 343 342 342 343 341 340 338 337 338 338 338 338 341 341 340 338 338 336 338 337 337 338 338 340 339 339 338 337 337 339 338
346 347 346 346 346 346 347 345 345 345 345 345 346 345 343 344 345 345 344 345 346 345 344 344 343 342 343 342 341 341 341 342 341 342 343 342 342 340 338 338 339 338 339 341 341 340 339 338 337 336 337 336 338 340 339 340 339 338 337 337 338 338
346 346 347 345 346 345 345 345 345 345 345 346 347 344 343 344 345 346 345 345 346 345 344 344 342 342 341 341 341 340 341 341 340 341 342 342 341 341 340 339 339 342 343 343 342 341 342 340 339 337 338 335 336 338 338 339 338 338 338 338 337 337
345 346 347 345 345 345 346 345 345 344 346 345 345 344 343 343 344 346 345 346 345 345 344 343 342 342 341 342 341 341 340 340 341 340 342 342 343 342 341 339 339 341 340 342 342 341 341 342 340 339 337 336 338 338 339 337 337 337 337 337 337 336
344 344 345 346 345 345 346 345 346 346 346 345 346 345 344 344 344 345 344 344 344 344 343 343 342 341 342 342 341 340 340 340 341 341 342 342 341 341 339 338 338 339 338 340 339 338 337 337 337 337 337 337 338 338 337 336 337 337 337 337 337 337
342 343 344 345 344 344 345 344 345 344 345 343 343 343 344 344 345 344 344 340 342 343 343 343 343 342 341 340 340 340 339 339 340 341 341 341 341 341 340 338 338 337 335 336 336 336 336 336 336 334 335 336 335 336 336 336 337 336 336 337 338 337
341 341 342 344 344 344 344 344 343 342 341 343 342 341 342 342 343 343 343 337 340 343 344 344 343 343 340 340 340 338 340 341 341 341 341 342 341 339 339 338 339 339 335 334 335 335 335 335 335 334 335 335 336 336 335 336 336 335 335 337 336 337
339 340 342 342 343 343 344 342 340 341 340 341 341 341 343 341 343 343 338 337 338 342 342 343 344 344 343 336 339 340 339 339 341 341 341 341 340 340 339 337 337 339 340 336 333 333 333 335 334 334 334 335 336 335 335 336 336 336 336 335 335 336
339 340 342 342 341 342 342 341 340 340 340 339 340 343 342 341 341 341 340 340 340 342 343 343 343 343 342 337 338 337 338 339 340 340 340 339 340 340 339 339 334 337 338 337 334 333 333 333 334 333 334 334 336 336 336 336 336 337 336 333 334 335
338 339 340 341 340 340 340 340 341 339 339 339 339 340 341 342 341 341 340 340 340 342 343 343 342 339 336 335 335 337 338 339 340 340 339 339 338 336 336 336 336 334 336 336 335 334 334 334 334 333 333 335 335 335 336 338 338 335 335 335 334 334
338 339 339 338 337 337 336 335 334 335 336 336 337 337 339 340 341 340 339 340 340 341 341 338 335 336 335 333 334 337 337 339 340 339 338 336 334 334 333 334 336 335 333 334 334 334 335 334 333 332 332 333 334 334 334 337 337 335 335 335 335 335
337 339 337 335 334 334 333 333 333 334 334 336 336 336 337 339 340 341 340 340 340 340 337 335 334 334 333 333 335 336 338 338 339 337 336 335 334 334 336 337 336 336 333 331 331 334 335 335 331 329 331 330 332 336 336 334 333 334 335 337 335 334
334 336 337 336 336 335 335 335 335 334 333 334 333 333 335 339 340 340 340 340 341 340 338 335 335 334 334 333 332 333 335 336 335 335 334 334 334 334 334 337 335 333 333 332 331 334 333 332 328 326 325 324 329 329 331 332 331 332 335 336 334 334
331 335 335 336 336 335 336 337 337 337 335 333 335 335 337 341 341 340 341 339 341 339 337 338 336 335 335 333 333 334 335 335 335 334 333 333 332 330 332 332 334 333 330 332 331 333 333 334 329 330 331 327 321 319 324 327 330 330 332 335 334 333
332 333 333 335 336 337 337 336 336 337 335 333 332 335 337 339 342 339 337 340 341 337 336 337 336 335 335 335 334 334 335 335 335 335 335 334 333 331 331 331 334 334 333 327 329 330 334 333 333 330 323 324 324 322 317 320 324 328 332 332 332 332
332 332 332 333 333 333 334 334 335 335 336 333 335 335 335 334 336 337 338 337 336 337 337 337 337 334 335 334 334 335 334 334 333 334 335 335 334 332 331 332 333 334 333 330 327 329 331 333 334 335 330 323 321 319 319 323 324 325 330 329 330 331
331 331 330 331 333 333 332 332 333 331 330 331 330 329 330 330 333 333 334 337 337 336 336 336 336 335 335 334 334 334 334 334 333 333 334 334 334 333 332 332 333 333 334 336 332 328 328 332 334 334 335 334 330 322 323 324 322 318 328 330 331 333
331 330 331 331 332 332 331 332 332 331 332 331 331 330 334 335 334 336 337 337 335 335 336 335 335 334 335 334 334 334 334 334 336 334 335 334 334 332 332 333 335 336 334 334 332 328 327 328 331 332 332 333 331 330 331 325 320 324 318 324 330 330
330 329 330 331 331 331 331 331 330 330 330 329 329 330 332 335 337 337 337 338 337 336 336 335 334 333 334 333 333 333 335 334 334 334 335 333 334 335 334 334 335 336 334 331 332 330 329 329 326 327 331 330 331 332 333 332 330 324 321 318 320 327
329 329 330 330 330 330 330 331 330 329 328 329 330 330 329 331 333 336 336 338 336 335 335 334 333 333 333 333 334 333 334 333 334 334 334 334 335 335 334 332 332 331 331 330 331 332 331 329 329 329 328 328 330 331 331 331 330 329 324 321 320 321
329 330 330 331 331 330 330 330 330 330 330 330 331 332 331 330 332 335 334 335 335 335 334 333 332 333 332 333 333 333 334 333 334 334 334 334 334 333 333 333 332 331 331 330 331 332 332 332 332 333 330 329 328 329 328 327 328 327 326 326 321 319
328 329 331 331 331 330 331 331 331 331 332 332 333 332 332 332 333 334 332 333 333 333 334 334 332 332 334 334 333 334 334 334 334 335 334 334 335 332 333 334 334 333 332 331 330 332 333 335 334 333 331 331 330 329 328 327 327 327 326 323 321 321
330 330 330 331 332 332 331 332 332 333 333 335 335 331 332 331 332 332 333 332 333 333 333 333 331 329 331 333 333 333 334 334 333 334 334 335 335 334 334 334 334 333 332 332 333 333 334 334 334 332 332 332 332 333 333 330 331 330 328 326 324 322
328 331 332 332 332 333 333 333 333 333 334 336 335 334 334 333 333 332 332 333 333 331 332 330 329 328 330 331 332 332 332 332 333 334 335 335 335 336 335 334 333 332 332 331 331 332 331 332 332 331 331 333 334 334 332 334 333 331 331 330 327 323
327 329 331 332 333 332 333 333 334 334 335 335 333 332 333 333 334 333 334 334 334 333 332 331 331 329 330 331 331 332 333 333 334 335 335 336 336 335 335 334 334 333 332 331 332 333 333 335 335 335 337 334 334 332 334 334 333 332 330 329 326 325
324 326 328 329 331 332 331 332 332 332 333 332 332 332 332 333 335 334 335 335 335 335 333 333 333 332 331 331 332 333 334 334 334 334 335 335 335 335 335 335 335 335 334 332 332 333 334 335 333 334 335 334 333 334 333 331 333 332 331 330 330 328
322 323 325 326 329 330 330 331 332 332 332 332 331 331 331 332 333 334 333 332 333 334 334 334 334 333 332 331 331 331 332 334 334 335 334 335 334 334 335 335 335 333 332 332 332 333 334 335 335 335 336 336 334 332 331 330 332 333 331 333 332 331
320 322 322 324 325 327 329 329 330 331 332 332 331 330 329 331 332 332 333 333 333 334 334 334 333 333 333 331 331 330 331 333 334 334 333 334 334 332 331 330 333 334 331 331 332 333 334 333 334 335 336 335 334 333 332 333 333 333 333 334 332 331
Wind_Speed
10 11 11 11 10 11 13 15 13 14 13 13 14 15 15 16 14 15 15 13 11 10 10 10 11 10 10 8 9 10 9 9 9 11 12 11 10 8 7 7 8 10 12 13 12 13 12 12 12 12 11 11 10 6 6 7 7 6 6 6 6 7
10 11 11 9 9 9 11 13 12 13 12 13 13 14 13 12 13 12 14 12 10 8 8 9 9 11 8 8 8 9 10 9 10 10 11 11 10 8 7 7 9 11 13 14 14 9 9 10 11 11 10 9 5 6 6 6 6 6 7 5 5 8
10 11 12 10 9 10 12 10 12 11 10 13 13 12 11 11 11 11 12 11 9 8 9 8 9 8 8 8 8 10 10 10 9 10 10 10 10 9 7 7 10 10 9 12 9 7 7 7 7 10 9 5 5 5 6 6 5 5 5 5 6 7
11 12 11 9 9 10 10 10 10 10 10 10 11 10 10 11 10 11 10 9 8 8 9 8 10 12 11 7 7 9 10 11 11 9 9 9 10 10 10 8 9 10 8 7 6 6 7 6 6 5 4 4 4 6 5 5 5 5 5 5 6 9
11 11 11 9 10 10 10 10 10 10 10 9 10 9 9 9 9 10 10 8 8 8 7 7 8 9 7 7 7 7 7 5 5 6 5 6 5 6 6 7 6 5 4 5 6 5 6 6 5 5 4 4 5 5 5 4 4 5 5 5 7 5
11 11 11 10 10 10 11 10 10 9 9 8 8 8 8 8 8 9 8 8 8 7 7 6 8 7 6 6 7 6 6 6 5 5 4 4 4 5 5 5 6 6 4 5 5 5 5 5 6 5 5 5 5 5 4 4 4 4 5 5 6 5
11 11 11 10 9 9 9 8 8 8 9 8 8 8 8 7 7 8 9 9 8 6 6 6 7 7 7 6 6 6 5 5 5 4 4 4 4 4 4 5 5 5 4 5 6 5 5 5 5 6 5 5 5 5 4 4 4 5 5 5 7 5
11 12 10 9 9 9 8 8 8 9 8 8 8 8 8 7 8 8 8 7 6 5 7 6 6 6 6 6 6 6 5 5 5 4 3 3 5 4 4 4 5 5 6 5 6 6 5 5 5 5 6 5 5 4 4 4 4 4 5 5 6 7
12 12 10 10 10 9 9 9 8 9 9 9 8 8 7 8 8 7 7 7 6 5 5 6 7 7 6 6 6 6 5 5 4 4 3 3 3 4 4 4 4 5 5 5 5 5 5 5 5 5 5 6 5 5 4 4 4 4 4 4 4 7
12 12 11 11 9 9 9 8 8 8 8 9 8 8 8 8 8 7 7 6 7 6 7 7 7 6 7 6 6 6 5 5 4 4 3 3 3 3 4 4 4 4 5 5 5 5 5 5 5 5 5 5 5 4 4 4 4 4 5 4 4 6
12 10 10 11 9 9 9 9 8 8 8 8 8 8 8 8 7 7 7 8 8 9 8 7 8 7 6 6 6 6 5 4 5 4 4 3 2 3 3 3 3 4 4 4 4 5 5 5 5 5 4 5 4 4 4 4 4 4 5 4 4 5
12 9 10 10 9 9 10 9 8 8 8 8 8 8 8 8 6 7 8 8 7 8 8 7 8 8 7 7 6 6 5 5 4 5 5 4 3 3 3 4 4 3 2 3 4 4 3 4 4 4 4 5 5 4 4 4 5 4 4 4 4 4
12 11 12 12 10 10 9 8 8 8 8 7 7 8 8 8 8 7 7 8 7 8 7 7 8 8 7 6 7 7 6 5 5 5 5 6 5 4 4 4 4 4 3 3 4 4 2 2 3 3 4 5 4 4 4 5 4 4 4 4 3 3
10 10 10 9 9 8 8 8 7 7 7 6 6 7 7 8 8 7 7 7 7 8 8 8 8 7 6 6 6 6 6 5 5 5 5 5 6 5 4 5 5 4 4 3 4 5 5 5 4 4 4 3 4 4 5 4 4 4 4 4 3 3
9 10 10 9 9 8 7 6 6 7 5 7 7 7 7 8 7 7 7 2 5 7 8 8 8 6 7 6 6 6 6 6 6 6 5 5 5 5 5 5 5 5 5 4 5 5 5 5 5 5 5 5 5 5 5 5 5 5 4 4 4 4
9 11 10 10 10 9 8 6 5 6 5 9 7 7 6 7 7 7 2 4 8 8 8 8 8 7 6 5 6 6 5 6 7 6 5 5 5 6 5 6 6 6 6 6 6 5 4 5 5 5 5 5 5 5 5 5 5 4 4 4 4 4
10 10 11 11 10 9 8 6 6 6 6 8 7 9 6 7 7 5 5 5 7 7 8 7 7 6 4 2 5 5 5 6 6 5 4 4 5 4 5 6 6 6 6 6 6 6 5 5 5 5 6 6 6 6 5 5 5 4 4 4 4 4
8 9 8 8 8 8 7 7 7 7 7 7 9 7 5 7 6 6 7 8 9 7 6 5 5 4 2 5 5 4 5 5 5 5 4 4 4 4 5 7 7 5 5 6 6 6 6 6 5 5 5 6 6 5 5 5 5 5 5 4 4 4
8 8 8 7 7 6 7 7 6 7 8 9 8 6 6 6 6 6 6 7 6 5 4 4 3 3 2 3 3 3 4 5 5 5 5 4 5 6 6 6 8 7 6 5 6 6 6 6 6 6 6 6 6 5 5 4 4 4 4 5 4 4
7 7 5 3 3 4 4 5 6 7 8 6 5 5 5 6 5 5 5 5 5 4 2 6 6 4 3 4 3 3 5 5 5 5 5 6 5 6 8 8 8 9 8 6 6 6 7 7 7 6 6 6 6 5 5 4 4 4 4 5 5 4
5 6 4 3 3 4 3 3 4 5 5 5 4 4 5 6 6 4 5 6 6 4 5 4 5 5 5 5 5 3 5 6 6 5 6 4 5 6 8 9 8 7 9 8 7 7 8 8 8 8 6 6 4 4 4 5 4 4 5 4 4 5
5 2 4 4 4 3 2 1 1 2 1 3 3 2 5 6 6 5 6 6 5 4 7 7 6 6 6 6 6 7 8 6 6 5 5 4 5 5 6 6 8 7 6 7 7 9 9 9 7 8 7 6 3 3 3 4 5 5 5 5 5 5
4 3 2 2 2 2 2 4 5 5 4 2 2 2 5 5 5 4 5 7 5 5 8 8 8 7 5 7 7 9 7 6 6 6 6 7 7 7 5 6 7 7 7 6 6 8 10 9 6 7 7 6 5 4 3 3 3 4 6 5 6 6
2 2 1 1 3 5 5 6 4 3 2 2 1 2 5 6 4 4 6 6 4 6 7 6 9 8 8 8 9 7 5 5 5 6 7 7 8 8 8 8 7 8 8 7 7 8 9 6 5 9 8 4 6 5 4 6 5 4 4 5 6 6
3 2 1 2 3 1 1 1 1 1 3 3 1 2 4 5 4 4 5 3 5 6 7 5 6 9 8 7 6 6 6 5 5 6 7 8 9 9 7 8 9 10 11 10 10 7 8 8 8 5 4 5 4 5 5 4 7 3 4 4 5 5
5 4 3 3 3 3 2 2 2 3 3 2 2 3 3 5 3 5 6 6 5 6 7 6 5 9 10 8 7 7 6 6 5 5 7 6 7 7 8 11 12 11 11 8 9 9 9 7 8 4 1 3 2 1 5 6 7 5 4 4 4 4
2 2 2 2 2 2 3 3 3 4 4 4 3 4 3 4 5 6 6 6 5 8 7 6 6 7 8 9 7 6 8 7 5 5 6 7 8 10 10 10 9 9 7 7 8 9 11 10 7 6 4 1 2 1 3 8 6 5 6 4 4 4
2 2 2 2 2 2 3 3 3 3 2 2 5 5 4 4 6 6 9 8 6 7 7 5 4 9 8 8 7 8 8 8 7 8 8 10 10 10 8 8 9 6 9 11 8 8 9 10 11 9 7 4 2 1 5 3 3 5 4 6 6 3
3 3 3 3 3 3 3 3 4 5 6 5 6 6 7 7 5 5 10 7 7 7 6 9 9 7 6 8 8 8 9 9 10 9 9 9 9 9 11 11 9 9 10 9 8 6 7 10 10 8 9 6 4 4 5 3 3 3 4 5 5 7
6 4 4 4 3 4 6 5 5 5 6 6 5 5 4 5 5 6 8 9 7 6 6 6 8 4 7 8 7 7 9 11 11 11 9 10 10 7 6 8 10 12 11 10 8 8 9 9 10 8 10 8 7 5 5 4 4 5 3 4 2 7
4 4 4 5 5 5 5 6 6 7 8 9 9 7 7 7 7 8 8 8 7 7 6 5 5 6 7 10 11 10 10 10 10 9 10 11 9 8 7 9 9 11 11 12 10 11 9 8 8 7 10 7 7 8 7 6 6 6 5 5 4 5
4 2 2 4 5 5 7 8 8 9 9 10 7 8 10 11 10 10 9 8 7 6 6 5 6 8 10 10 11 11 10 11 10 10 11 10 9 8 9 8 8 9 9 10 10 10 9 9 9 7 9 7 7 6 4 4 4 5 5 5 4 5
6 5 2 3 5 6 7 8 9 10 10 7 5 7 9 9 9 9 9 9 8 8 7 7 7 4 9 10 9 10 10 11 10 10 10 10 10 10 9 8 8 10 10 10 9 10 9 11 11 9 9 8 6 6 5 3 3 4 4 3 4 5
8 7 8 6 5 6 6 7 8 7 7 5 7 7 9 9 9 9 9 10 9 7 7 9 7 8 10 6 8 9 10 10 10 10 10 11 10 10 9 8 9 9 10 9 9 11 11 11 10 9 7 7 6 6 5 4 4 4 5 5 5 5
10 11 10 9 8 9 8 7 8 9 8 6 6 7 7 7 7 9 8 8 7 6 8 8 8 8 8 9 8 7 10 11 10 10 10 9 9 9 10 9 8 9 8 8 9 10 9 9 9 10 8 7 6 4 3 2 4 5 5 6 5 6
11 11 10 11 11 11 10 9 8 9 8 7 7 8 7 6 6 6 7 7 8 9 8 6 6 8 9 8 6 7 10 9 10 9 9 9 8 7 8 8 7 7 9 8 8 12 9 10 9 9 9 7 6 6 5 6 6 5 5 5 5 6
11 11 11 11 11 11 11 11 10 9 8 8 8 9 8 8 7 7 8 8 9 10 8 7 7 7 7 10 9 10 10 10 10 9 8 7 7 5 5 3 5 8 10 10 9 12 9 9 8 9 7 9 7 6 6 6 6 6 6 5 5 6
Wind_Direction
149 148 150 148 150 151 151 150 150 150 151 152 154 154 153 154 155 157 155 156 155 157 157 150 148 145 140 136 125 123 119 118 123 127 127 126 126 126 127 122 112 107 121 128 124 120 121 124 122 122 122 119 128 129 115 119 119 115 109 113 112 108
152 153 153 152 152 153 154 160 161 161 163 160 160 160 162 167 162 163 160 157 162 159 160 154 151 145 148 142 137 128 126 122 121 124 126 126 125 124 125 120 107 107 120 128 131 133 126 120 121 123 123 134 137 115 123 123 124 118 117 110 104 110
157 159 159 159 158 158 160 165 168 168 168 169 168 170 171 171 170 167 164 167 163 160 162 157 159 156 153 147 135 135 130 124 114 117 123 124 125 122 117 112 108 111 111 134 146 135 139 139 127 121 133 148 120 124 124 125 121 121 116 108 105 92
165 165 166 164 161 164 166 170 172 173 172 174 173 175 173 174 173 169 168 169 162 162 163 161 157 153 152 155 145 143 139 127 117 108 117 127 124 115 110 101 104 114 134 151 138 143 142 141 141 150 147 140 130 129 133 131 124 117 114 118 99 102
169 171 170 167 166 170 172 175 177 177 176 176 175 175 175 177 175 169 171 167 167 164 168 172 166 159 165 157 161 161 155 147 131 122 119 137 144 135 149 135 130 144 148 149 145 142 145 138 138 145 146 140 136 138 132 129 122 120 117 113 107 113
173 176 176 173 174 175 175 180 179 177 176 176 173 176 176 180 174 173 173 170 164 168 172 172 163 163 160 166 164 168 164 154 135 124 139 134 140 143 139 137 133 140 147 154 147 147 145 146 146 147 149 146 143 144 139 133 127 119 113 113 118 125
177 178 180 180 179 180 181 179 175 176 175 174 177 176 175 173 175 175 178 172 165 167 170 170 170 166 169 173 166 173 167 160 149 133 136 140 134 136 133 130 124 129 142 151 148 145 150 148 149 150 147 148 147 143 137 135 129 122 114 115 116 76
182 182 183 181 179 187 180 179 180 176 181 172 178 178 175 175 173 178 177 169 165 168 172 167 171 172 175 179 171 175 174 164 155 133 134 145 145 138 127 122 121 127 143 147 148 152 155 153 151 152 146 150 152 144 144 138 129 122 117 120 129 111
189 189 181 186 184 189 186 187 183 183 184 170 180 179 176 175 177 175 171 168 167 170 174 172 180 178 174 184 176 181 181 167 160 147 150 153 152 137 127 132 134 137 143 149 151 153 157 156 160 157 154 151 158 148 145 143 135 131 127 130 130 120
190 192 187 189 188 190 189 186 190 190 190 179 179 183 177 183 184 167 166 171 174 179 181 180 177 178 183 182 172 193 186 177 160 154 172 169 153 138 129 137 137 139 145 154 155 153 161 161 168 160 157 150 153 153 147 148 142 139 134 138 128 126
193 193 196 192 192 190 190 194 189 193 193 191 185 182 190 189 186 186 179 181 182 184 186 183 178 176 188 178 182 190 192 190 183 176 188 182 146 126 124 131 134 141 151 156 150 155 167 163 166 162 150 151 151 149 150 142 143 141 144 139 135 135
199 194 188 200 195 198 199 202 189 198 198 194 185 196 196 196 194 194 190 188 192 186 184 182 186 177 181 182 181 187 188 187 199 195 197 195 167 134 122 104 115 124 122 139 139 152 163 163 165 147 151 148 154 156 152 150 151 152 149 145 138 139
195 205 191 196 198 202 202 197 198 200 206 195 190 199 202 202 197 199 195 190 190 192 184 182 190 181 183 179 181 181 179 182 195 202 202 196 178 149 131 126 122 130 133 123 123 135 141 147 144 130 151 151 153 152 153 163 155 156 156 153 149 140
197 196 206 202 204 202 208 200 202 199 202 195 199 203 204 205 207 206 201 197 190 194 190 188 187 184 184 179 179 180 176 184 190 195 201 195 192 180 159 134 132 131 118 135 143 149 161 166 150 153 163 143 162 150 166 162 167 163 163 163 153 151
209 208 199 202 206 208 206 195 188 203 195 198 207 209 208 209 209 212 201 162 210 196 198 196 193 186 186 178 176 176 181 184 185 189 193 199 199 181 167 147 144 135 142 142 148 152 163 162 158 160 157 167 172 162 167 169 171 171 171 159 166 150
199 207 211 210 207 205 202 195 170 173 191 197 209 212 205 203 209 211 179 133 224 202 202 202 199 192 186 185 180 181 176 178 179 183 191 187 196 187 164 145 152 144 143 147 147 149 155 156 155 153 154 163 167 169 168 174 173 167 169 174 166 157
199 194 200 208 204 196 192 190 175 183 199 195 209 215 206 207 218 205 149 189 231 217 210 205 206 203 175 184 210 177 169 175 167 177 193 197 197 183 166 156 151 159 151 148 158 148 148 151 150 151 157 165 169 169 173 175 164 162 175 185 169 162
176 178 192 194 186 190 195 195 188 200 210 204 213 220 196 202 214 206 197 194 197 210 214 212 215 201 153 167 214 167 189 192 174 180 189 203 199 179 174 156 147 156 156 144 156 161 158 156 152 153 164 170 169 173 173 178 159 172 187 182 173 179
169 178 194 194 182 188 196 199 195 202 211 214 220 220 213 209 209 202 202 202 198 203 206 209 183 111 91 214 195 189 199 212 188 185 192 199 184 171 167 158 151 151 163 170 167 169 162 160 156 157 159 160 166 165 164 161 167 181 192 188 181 179
170 180 177 159 158 182 199 195 197 203 210 215 217 219 219 223 212 208 202 196 203 211 209 60 58 77 164 186 161 224 209 207 192 186 195 198 177 173 166 164 165 156 154 153 160 165 163 157 145 140 148 158 158 162 162 154 166 182 202 194 191 185
159 171 159 152 179 194 200 218 211 200 209 212 217 222 228 229 227 227 219 208 202 195 105 134 171 159 178 173 156 227 222 209 194 187 194 188 180 178 179 174 162 161 156 152 161 167 161 154 145 143 150 152 143 156 157 149 177 186 206 201 192 194
22 152 181 199 198 208 194 156 293 294 338 312 334 256 229 232 236 228 232 221 211 187 153 182 163 145 189 177 163 204 217 208 197 185 164 147 167 149 170 166 157 153 161 154 160 169 163 162 165 161 156 156 138 139 134 159 178 208 209 210 201 194
210 195 194 164 178 240 247 248 239 238 208 228 210 228 257 253 250 227 212 234 224 182 178 183 138 151 186 195 185 198 198 198 197 185 170 160 168 161 153 161 179 169 162 171 160 171 169 191 165 162 152 142 153 140 149 170 180 206 218 211 205 201
154 158 132 216 210 237 251 254 277 300 121 184 178 183 265 250 233 232 237 232 231 210 214 185 150 146 196 198 186 190 190 192 199 198 187 178 180 177 169 173 189 191 159 158 172 173 182 195 182 158 166 191 160 194 190 208 185 181 194 207 215 206
137 142 158 227 230 300 283 261 269 200 125 139 131 219 232 256 242 247 262 244 224 217 235 227 159 161 200 202 176 187 196 180 185 208 195 190 189 182 179 174 195 192 184 178 171 171 180 192 198 200 168 157 165 200 222 157 172 165 193 173 203 205
157 150 170 182 177 171 169 231 241 252 257 232 153 206 212 263 262 238 248 254 230 226 225 224 195 182 192 191 187 192 196 189 176 204 204 189 194 173 177 187 199 198 191 184 168 168 178 192 205 183 306 338 334 293 185 166 186 175 179 193 175 184
91 105 136 119 146 167 202 212 234 253 256 232 210 206 198 218 240 246 236 237 214 240 227 206 190 188 190 184 184 183 198 203 187 204 209 197 197 188 184 198 199 195 168 167 176 174 182 185 193 206 205 299 343 317 177 160 196 155 168 179 192 176
54 91 115 146 136 150 201 194 205 202 171 141 169 189 159 183 203 237 257 245 214 225 214 168 178 211 199 183 182 186 198 204 201 207 209 210 208 199 179 194 196 183 166 173 175 185 187 185 192 196 195 200 199 217 177 181 185 193 178 179 189 188
63 107 129 144 173 175 185 173 187 198 204 191 189 193 184 213 214 229 253 252 230 223 202 173 198 211 199 202 186 180 194 205 210 209 204 210 211 204 189 191 178 185 181 176 185 190 187 192 198 192 181 192 190 167 160 164 172 195 192 174 178 194
96 95 103 109 129 176 195 200 206 209 213 216 216 201 191 218 229 235 246 249 241 229 219 182 168 204 225 222 212 189 195 207 212 209 201 208 208 191 184 195 188 188 188 186 184 192 196 195 201 193 192 176 177 157 165 172 188 185 172 225 197 192
121 151 172 159 160 168 202 208 208 211 217 219 210 198 203 220 221 222 232 239 238 239 224 196 150 190 221 217 220 212 209 207 209 206 207 208 205 178 199 208 192 183 189 188 187 197 201 200 200 192 192 180 181 178 175 186 183 188 195 182 188 165
73 107 179 183 191 189 179 189 200 206 219 224 199 203 207 218 220 223 223 226 230 230 217 196 156 199 215 210 206 211 209 207 211 209 212 212 207 182 195 205 191 188 190 195 197 199 197 195 195 196 197 194 197 193 185 191 180 192 198 197 198 163
28 7 327 233 235 226 216 196 194 205 221 222 198 201 213 215 217 225 226 224 214 220 210 179 159 199 232 196 205 211 212 211 208 206 207 206 204 200 192 194 190 193 193 190 197 200 199 200 198 198 199 200 202 196 200 190 188 202 198 194 199 161
5 354 345 329 298 274 265 252 229 228 233 237 235 227 234 236 228 227 227 222 217 213 212 211 184 177 241 199 208 222 221 216 211 206 206 204 202 201 198 198 195 199 199 196 195 203 207 200 197 197 190 186 199 201 199 185 195 193 185 185 185 169
3 357 350 334 316 309 301 286 267 258 259 256 254 251 249 245 235 231 228 226 220 219 219 212 205 190 204 233 230 230 227 219 213 210 207 202 198 197 197 201 200 203 199 197 206 206 211 201 203 199 200 196 189 187 154 189 209 200 190 196 186 166
3 357 352 344 330 318 316 306 290 278 278 279 276 277 275 256 239 237 240 233 234 229 227 215 197 196 198 192 210 236 235 225 220 211 205 201 195 196 201 205 202 197 201 204 209 211 211 208 203 198 199 194 196 187 172 195 214 199 201 196 187 169
359 354 349 346 343 336 322 310 302 297 289 286 285 281 276 269 255 243 234 231 232 232 220 207 208 199 201 191 189 208 219 219 218 211 202 198 184 158 156 192 237 201 187 196 205 210 204 199 205 192 200 192 197 182 184 198 208 198 196 192 192 184